Miscellaneous Local Product
Issued by NWS Hastings, NE

Home | Current Version | Previous Version | Text Only | Print | Product List | Glossary Off
Versions: 1 2 3 4 5 6 7 8 9 10 11 12 13 14 15 16 17 18 19 20 21 22 23 24 25 26 27 28 29 30 31 32 33 34 35 36 37 38 39 40 41 42 43 44 45 46 47 48 49 50

000
AXUS43 KGID 211902
MISGRI

GID CWA HOURLY WEATHER ROUNDUP
NATIONAL WEATHER SERVICE HASTINGS NE
200 PM CDT MON AUG 21 2017

NOTE: "FAIR" INDICATES FEW OR NO CLOUDS BELOW 12,000 FEET WITH NO
SIGNIFICANT WEATHER AND/OR OBSTRUCTIONS TO VISIBILITY.

...SOUTH CENTRAL NEBRASKA...

CITY           SKY/WX    TMP DP  RH WIND       PRES   REMARKS
GRAND ISLAND   MOSUNNY   83  70  64 S13       29.94S
HASTINGS       CLOUDY    81  67  62 S12       29.95F
KEARNEY        MOSUNNY   81  69  67 S13       29.95S
ORD            SUNNY     83  68  60 VRB3      29.93R
YORK           CLOUDY    77  70  78 S13       29.94F
AURORA         CLOUDY    81  69  65 S13       29.94S
LEXINGTON      SUNNY     82  67  60 S9        29.95R
HOLDREGE       CLOUDY    80  64  58 S16       29.96R
HEBRON         CLOUDY    83  69  62 S7        29.95F

...NEBRASKA PANHANDLE...

CITY           SKY/WX    TMP DP  RH WIND       PRES   REMARKS
CHADRON        SUNNY     76  54  46 NE15      30.11R
ALLIANCE       MOSUNNY   75  61  61 N20G28    30.10R
SCOTTSBLUFF    SUNNY     79  55  43 N16       30.12R
SIDNEY         SUNNY     79  59  50 N22       30.10R

...WESTERN AND NORTH CENTRAL NEBRASKA...

CITY           SKY/WX    TMP DP  RH WIND       PRES   REMARKS
VALENTINE      CLOUDY    69  61  75 CALM      30.00S
AINSWORTH      CLOUDY    65  64  96 E5        30.01S
ONEILL         CLOUDY    69  65  86 N16G22    29.96F
BROKEN BOW     SUNNY     84  69  60 N7        29.96R
IMPERIAL       SUNNY     85  63  47 NE6       29.98R
NORTH PLATTE   SUNNY     85  70  60 E3        29.96R
MCCOOK         MOSUNNY   83  64  52 S13       29.94F

...EASTERN NEBRASKA...

CITY           SKY/WX    TMP DP  RH WIND       PRES   REMARKS
NORFOLK        SUNNY     80  71  74 S15       29.91F
SO SIOUX CITY  SUNNY     79  71  76 S15G28    29.91R
TEKAMAH        PTSUNNY   78  69  73 S9        29.92F
COLUMBUS       PTSUNNY   78  73  84 SE7       29.94S
ALBION         SUNNY     82  73  76 S10       29.93S
OMAHA EPPLEY   CLOUDY    78  68  71 S25       29.95F
OFFUTT AFB     PTSUNNY   76  69  78 S15G24    29.96R
MILLARD        PTSUNNY   78  71  79 SE13G22   29.96R
LINCOLN        CLOUDY    80  73  79 SE15      29.95S
NEBRASKA CITY  CLOUDY    75  75  99 S14       29.99S
BEATRICE       CLOUDY    81  69  68 SE12G21   29.97S
FALLS CITY     CLOUDY    80  74  81 SE9       29.98S

...NORTHERN KANSAS...

CITY           SKY/WX    TMP DP  RH WIND       PRES   REMARKS
GOODLAND       SUNNY     81  62  52 S14       29.99F
HILL CITY      CLOUDY    85  65  51 S16G23    29.96F
NORTON         CLEAR     82  57  42 S8        29.94
PHILLIPSBURG   SUNNY     82  64  54 S13       29.95S
SMITH CENTER   MOSUNNY   81  66  61 S14       29.96S
HAYS           CLOUDY    83  66  56 S17G25    29.97S
RUSSELL        CLOUDY    82  69  64 S15       29.96F
CONCORDIA      CLOUDY    81  69  67 S15       29.97S
SALINA         CLOUDY    86  74  67 S13       29.97F HX  94
TOPEKA         MOSUNNY   82  78  88 E8        30.00F HX  91



USA.gov is the U.S. government's official web portal to all federal, state and local government web resources and services.